| time (UTC) | temp F | wind direction | speed knots | gust knots | rain 1hr in | rain 24hr in | rain mn in | humidity % | barometer mb |
| 20260906131549 | 73 | 260 | 0.0 | 1.7 | 0.00 | 0.00 | 0.00 | 94 | 1020.4 |
| 20260906131044 | 73 | 259 | 0.0 | 0.0 | 0.00 | 0.00 | 0.00 | 95 | 1020.4 |
| 20260906130544 | 72 | 281 | 0.0 | 3.5 | 0.00 | 0.00 | 0.00 | 95 | 1020.4 |
| 20260906130039 | 72 | 255 | 0.0 | 5.2 | 0.00 | 0.00 | 0.00 | 95 | 1020.5 |
| 20260906125536 | 72 | 260 | 0.0 | 1.7 | 0.00 | 0.00 | 0.00 | 95 | 1020.3 |
| 20260906125031 | 73 | 263 | 0.9 | 2.6 | 0.00 | 0.00 | 0.00 | 95 | 1020.5 |
| 20260906124526 | 73 | 275 | 0.0 | 0.9 | 0.00 | 0.00 | 0.00 | 96 | 1020.2 |
| 20260906124021 | 73 | 265 | 0.0 | 2.6 | 0.00 | 0.00 | 0.00 | 95 | 1020.0 |
| 20260906123520 | 73 | 267 | 0.0 | 0.9 | 0.00 | 0.00 | 0.00 | 96 | 1019.9 |
| 20260906123015 | 72 | 241 | 0.0 | 2.6 | 0.00 | 0.00 | 0.00 | 96 | 1019.7 |
| 20260906122509 | 72 | 275 | 0.0 | 0.9 | 0.00 | 0.00 | 0.00 | 96 | 1019.7 |
| 20260906122005 | 72 | 263 | 0.0 | 0.0 | 0.00 | 0.00 | 0.00 | 97 | 1019.5 |
| 20260906121501 | 72 | 275 | 0.0 | 0.9 | 0.00 | 0.00 | 0.00 | 97 | 1019.6 |
| 20260906120957 | 72 | 284 | 0.0 | 0.0 | 0.00 | 0.00 | 0.00 | 97 | 1019.5 |
| 20260906120452 | 71 | 260 | 0.0 | 0.0 | 0.00 | 0.00 | 0.00 | 98 | 1019.3 |
| 20260906115949 | 71 | 266 | 0.0 | 0.0 | 0.00 | 0.00 | 0.00 | 98 | 1019.1 |
| 20260906115444 | 71 | 257 | 0.0 | 2.6 | 0.00 | 0.00 | 0.00 | 98 | 1019.2 |
| 20260906114944 | 71 | 261 | 0.0 | 0.9 | 0.00 | 0.00 | 0.00 | 98 | 1018.9 |
| 20260906114439 | 71 | 327 | 0.0 | 0.9 | 0.00 | 0.00 | 0.00 | 98 | 1018.9 |
| 20260906113935 | 71 | 266 | 0.0 | 0.9 | 0.00 | 0.00 | 0.00 | 98 | 1018.8 |
| 20260906113433 | 71 | 297 | 0.9 | 2.6 | 0.00 | 0.00 | 0.00 | 98 | 1018.8 |
| 20260906112929 | 71 | 262 | 0.0 | 2.6 | 0.00 | 0.00 | 0.00 | 98 | 1018.6 |
| 20260906112424 | 71 | 320 | 0.9 | 2.6 | 0.00 | 0.00 | 0.00 | 97 | 1018.3 |
| 20260906111920 | 71 | 258 | 0.0 | 1.7 | 0.00 | 0.00 | 0.00 | 97 | 1018.2 |
| 20260906111419 | 71 | 253 | 0.0 | 0.0 | 0.00 | 0.00 | 0.00 | 97 | 1018.3 |
| 20260906110914 | 71 | 273 | 0.0 | 0.9 | 0.00 | 0.00 | 0.00 | 97 | 1018.6 |
| 20260906110410 | 71 | 259 | 0.0 | 0.0 | 0.00 | 0.00 | 0.00 | 97 | 1018.4 |
| 20260906105909 | 71 | 262 | 0.0 | 1.7 | 0.00 | 0.00 | 0.00 | 97 | 1018.3 |
| 20260906105404 | 71 | 279 | 0.0 | 0.0 | 0.00 | 0.00 | 0.00 | 97 | 1018.3 |
| 20260906104901 | 71 | 259 | 0.0 | 0.0 | 0.00 | 0.00 | 0.00 | 97 | 1018.1 |
| 20260906104359 | 71 | 265 | 0.9 | 0.9 | 0.00 | 0.00 | 0.00 | 97 | 1018.4 |
| 20260906103858 | 71 | 267 | 0.0 | 1.7 | 0.00 | 0.00 | 0.00 | 97 | 1018.2 |
| 20260906103356 | 71 | 259 | 0.0 | 0.0 | 0.00 | 0.00 | 0.00 | 97 | 1018.1 |
| 20260906102852 | 71 | 259 | 0.0 | 0.9 | 0.00 | 0.00 | 0.00 | 96 | 1018.0 |
| 20260906102351 | 71 | 251 | 0.0 | 0.0 | 0.00 | 0.00 | 0.00 | 96 | 1018.2 |
| 20260906101846 | 71 | 265 | 0.0 | 0.9 | 0.00 | 0.00 | 0.00 | 96 | 1018.1 |
| 20260906101341 | 71 | 272 | 0.0 | 1.7 | 0.00 | 0.00 | 0.00 | 96 | 1018.1 |
| 20260906100837 | 71 | 260 | 0.0 | 0.0 | 0.00 | 0.00 | 0.00 | 96 | 1018.0 |
| 20260906100336 | 71 | 284 | 1.7 | 2.6 | 0.00 | 0.00 | 0.00 | 96 | 1017.7 |
| 20260906095831 | 71 | 260 | 0.0 | 2.6 | 0.00 | 0.00 | 0.00 | 96 | 1017.9 |
| 20260906095327 | 71 | 260 | 0.0 | 3.5 | 0.00 | 0.00 | 0.00 | 96 | 1017.7 |
| 20260906094826 | 71 | 266 | 0.0 | 0.0 | 0.00 | 0.00 | 0.00 | 96 | 1018.0 |
| 20260906094321 | 71 | 275 | 0.9 | 1.7 | 0.00 | 0.00 | 0.00 | 96 | 1017.9 |
| 20260906093817 | 71 | 260 | 0.0 | 0.0 | 0.00 | 0.00 | 0.00 | 96 | 1017.9 |
| 20260906093312 | 71 | 261 | 0.0 | 0.0 | 0.00 | 0.00 | 0.00 | 96 | 1017.8 |
| 20260906092807 | 71 | 259 | 0.0 | 2.6 | 0.00 | 0.00 | 0.00 | 96 | 1018.1 |
| 20260906092305 | 71 | 259 | 0.0 | 0.9 | 0.00 | 0.00 | 0.00 | 96 | 1017.9 |
| 20260906091758 | 71 | 254 | 0.0 | 2.6 | 0.00 | 0.00 | 0.00 | 96 | 1017.8 |
| 20260906091254 | 71 | 281 | 0.0 | 0.9 | 0.00 | 0.00 | 0.00 | 96 | 1018.0 |
| 20260906090750 | 71 | 245 | 0.0 | 0.0 | 0.00 | 0.00 | 0.00 | 96 | 1017.7 |
| 20260906090249 | 71 | 259 | 0.0 | 0.0 | 0.00 | 0.00 | 0.00 | 96 | 1017.9 |
| 20260906085749 | 71 | 258 | 0.0 | 0.0 | 0.00 | 0.00 | 0.00 | 96 | 1018.1 |
| 20260906085248 | 71 | 258 | 0.0 | 0.0 | 0.00 | 0.00 | 0.00 | 96 | 1017.8 |
| 20260906084742 | 71 | 271 | 0.0 | 0.9 | 0.00 | 0.00 | 0.00 | 96 | 1018.0 |
| 20260906084236 | 71 | 255 | 0.0 | 0.0 | 0.00 | 0.00 | 0.00 | 96 | 1018.1 |
| 20260906083731 | 71 | 270 | 0.0 | 1.7 | 0.00 | 0.00 | 0.00 | 96 | 1018.1 |
| 20260906083226 | 71 | 260 | 0.0 | 1.7 | 0.00 | 0.00 | 0.00 | 96 | 1018.0 |
| 20260906082721 | 71 | 282 | 0.0 | 1.7 | 0.00 | 0.00 | 0.00 | 97 | 1018.3 |
| 20260906082211 | 71 | 258 | 0.0 | 0.0 | 0.00 | 0.00 | 0.00 | 97 | 1018.2 |
| 20260906081707 | 71 | 259 | 0.9 | 1.7 | 0.00 | 0.00 | 0.00 | 97 | 1018.2 |
| 20260906081156 | 71 | 303 | 0.0 | 1.7 | 0.00 | 0.00 | 0.00 | 97 | 1018.2 |
| 20260906080653 | 71 | 280 | 0.0 | 1.7 | 0.00 | 0.00 | 0.00 | 97 | 1018.3 |
| 20260906080148 | 71 | 272 | 0.9 | 1.7 | 0.00 | 0.00 | 0.00 | 97 | 1018.0 |
| 20260906075642 | 71 | 271 | 0.0 | 0.9 | 0.00 | 0.00 | 0.00 | 97 | 1018.0 |
| 20260906075137 | 71 | 260 | 0.0 | 0.9 | 0.00 | 0.00 | 0.00 | 97 | 1018.1 |
| 20260906074632 | 71 | 257 | 0.0 | 0.0 | 0.00 | 0.00 | 0.00 | 97 | 1018.4 |
| 20260906074131 | 71 | 289 | 0.0 | 2.6 | 0.00 | 0.00 | 0.00 | 97 | 1018.1 |
| 20260906073626 | 71 | 258 | 0.0 | 0.0 | 0.00 | 0.00 | 0.00 | 97 | 1018.0 |
| 20260906073122 | 71 | 300 | 1.7 | 2.6 | 0.00 | 0.00 | 0.00 | 97 | 1018.1 |
| 20260906072617 | 71 | 259 | 0.0 | 0.0 | 0.00 | 0.00 | 0.00 | 97 | 1018.3 |
| 20260906072112 | 71 | 262 | 0.0 | 0.0 | 0.00 | 0.00 | 0.00 | 97 | 1018.4 |
| 20260906071608 | 71 | 264 | 0.0 | 0.0 | 0.00 | 0.00 | 0.00 | 96 | 1018.4 |
| 20260906071103 | 71 | 259 | 0.0 | 0.0 | 0.00 | 0.00 | 0.00 | 96 | 1018.4 |
| 20260906070600 | 71 | 285 | 0.0 | 0.9 | 0.00 | 0.00 | 0.00 | 96 | 1018.4 |
| 20260906070055 | 71 | 271 | 0.0 | 0.0 | 0.00 | 0.00 | 0.00 | 96 | 1018.3 |
| 20260906065554 | 71 | 274 | 0.0 | 0.0 | 0.00 | 0.00 | 0.00 | 95 | 1018.3 |
| 20260906065050 | 71 | 262 | 0.0 | 0.0 | 0.00 | 0.00 | 0.00 | 95 | 1018.3 |
| 20260906064546 | 71 | 262 | 0.0 | 0.0 | 0.00 | 0.00 | 0.00 | 96 | 1018.5 |
| 20260906064041 | 71 | 266 | 0.0 | 0.0 | 0.00 | 0.00 | 0.00 | 96 | 1018.5 |
| 20260906063536 | 71 | 260 | 0.0 | 0.0 | 0.00 | 0.00 | 0.00 | 95 | 1018.4 |
| 20260906063032 | 71 | 263 | 0.0 | 0.0 | 0.00 | 0.00 | 0.00 | 96 | 1018.7 |
| 20260906062527 | 71 | 303 | 0.9 | 0.9 | 0.00 | 0.00 | 0.00 | 96 | 1018.4 |
| 20260906062021 | 71 | 277 | 0.0 | 3.5 | 0.00 | 0.00 | 0.00 | 95 | 1018.6 |
| 20260906061518 | 71 | 307 | 0.0 | 0.0 | 0.00 | 0.00 | 0.00 | 95 | 1018.7 |
| 20260906061017 | 71 | 284 | 0.0 | 3.5 | 0.00 | 0.00 | 0.00 | 95 | 1018.5 |
| 20260906060513 | 71 | 260 | 0.0 | 1.7 | 0.00 | 0.00 | 0.00 | 95 | 1018.4 |
| 20260906060010 | 71 | 264 | 0.0 | 1.7 | 0.00 | 0.00 | 0.00 | 95 | 1018.7 |
| 20260906055505 | 71 | 341 | 0.0 | 5.2 | 0.00 | 0.00 | 0.00 | 95 | 1018.5 |
| 20260906055000 | 71 | 275 | 0.0 | 2.6 | 0.00 | 0.00 | 0.00 | 95 | 1018.3 |
| 20260906054455 | 71 | 260 | 0.0 | 0.9 | 0.00 | 0.00 | 0.00 | 95 | 1018.6 |
| 20260906053950 | 71 | 278 | 0.0 | 3.5 | 0.00 | 0.00 | 0.00 | 95 | 1018.5 |
| 20260906053447 | 72 | 314 | 0.0 | 3.5 | 0.00 | 0.00 | 0.00 | 95 | 1018.6 |
| 20260906052942 | 72 | 274 | 0.0 | 0.0 | 0.00 | 0.00 | 0.00 | 95 | 1018.6 |
| 20260906052438 | 72 | 334 | 0.0 | 6.1 | 0.00 | 0.00 | 0.00 | 95 | 1018.4 |
| 20260906051935 | 72 | 262 | 0.0 | 2.6 | 0.00 | 0.00 | 0.00 | 95 | 1018.3 |
| 20260906051430 | 72 | 258 | 0.0 | 0.9 | 0.00 | 0.00 | 0.00 | 95 | 1018.3 |
| 20260906050926 | 72 | 246 | 0.0 | 1.7 | 0.00 | 0.00 | 0.00 | 95 | 1018.3 |
| 20260906050425 | 72 | 258 | 0.0 | 2.6 | 0.00 | 0.00 | 0.00 | 96 | 1018.4 |
| 20260906045924 | 72 | 277 | 0.9 | 1.7 | 0.00 | 0.00 | 0.00 | 96 | 1018.1 |
| 20260906045423 | 72 | 297 | 0.9 | 5.2 | 0.00 | 0.00 | 0.00 | 95 | 1018.2 |
| 20260906044919 | 72 | 264 | 0.0 | 0.9 | 0.00 | 0.00 | 0.00 | 95 | 1017.9 |
| 20260906044414 | 73 | 288 | 0.0 | 3.5 | 0.00 | 0.00 | 0.00 | 95 | 1018.0 |
| 20260906043910 | 73 | 247 | 0.0 | 5.2 | 0.00 | 0.00 | 0.00 | 95 | 1017.6 |
| 20260906043405 | 73 | 238 | 0.0 | 2.6 | 0.00 | 0.00 | 0.00 | 95 | 1017.7 |
| 20260906042900 | 73 | 312 | 0.0 | 6.1 | 0.00 | 0.00 | 0.00 | 94 | 1017.5 |
| 20260906042359 | 73 | 290 | 0.0 | 6.1 | 0.00 | 0.00 | 0.00 | 94 | 1017.4 |
| 20260906041854 | 73 | 264 | 0.9 | 1.7 | 0.00 | 0.00 | 0.00 | 94 | 1017.5 |
| 20260906041350 | 73 | 281 | 0.0 | 0.9 | 0.00 | 0.00 | 0.00 | 94 | 1017.2 |
| 20260906040845 | 74 | 290 | 0.0 | 2.6 | 0.00 | 0.00 | 0.00 | 93 | 1017.2 |
| 20260906040341 | 74 | 259 | 0.0 | 1.7 | 0.00 | 0.00 | 0.00 | 93 | 1017.3 |
| 20260906035836 | 74 | 274 | 0.0 | 0.9 | 0.00 | 0.00 | 0.00 | 93 | 1017.3 |
| 20260906035331 | 74 | 283 | 0.9 | 2.6 | 0.00 | 0.00 | 0.00 | 92 | 1017.1 |
| 20260906034826 | 75 | 278 | 0.0 | 0.9 | 0.00 | 0.00 | 0.00 | 92 | 1017.4 |
| 20260906034321 | 75 | 271 | 0.0 | 2.6 | 0.00 | 0.00 | 0.00 | 92 | 1017.2 |
| 20260906033817 | 75 | 307 | 0.0 | 3.5 | 0.00 | 0.00 | 0.00 | 92 | 1017.2 |
| 20260906033316 | 75 | 275 | 0.0 | 1.7 | 0.00 | 0.00 | 0.00 | 92 | 1017.0 |
| 20260906032813 | 75 | 280 | 0.0 | 3.5 | 0.00 | 0.00 | 0.00 | 93 | 1017.1 |
| 20260906032308 | 75 | 262 | 0.0 | 0.9 | 0.00 | 0.00 | 0.00 | 93 | 1017.2 |
| 20260906031803 | 75 | 288 | 0.0 | 0.0 | 0.00 | 0.00 | 0.00 | 93 | 1016.8 |
| 20260906031259 | 75 | 266 | 0.0 | 0.0 | 0.00 | 0.00 | 0.00 | 93 | 1016.9 |
| 20260906030758 | 75 | 259 | 0.0 | 1.7 | 0.00 | 0.00 | 0.00 | 92 | 1016.9 |
| 20260906030254 | 75 | 285 | 0.0 | 1.7 | 0.00 | 0.00 | 0.00 | 92 | 1016.8 |
| 20260906025753 | 76 | 283 | 0.9 | 1.7 | 0.00 | 0.00 | 0.00 | 92 | 1016.9 |
| 20260906025248 | 76 | 286 | 0.0 | 2.6 | 0.00 | 0.00 | 0.00 | 91 | 1017.0 |
| 20260906024747 | 76 | 285 | 1.7 | 3.5 | 0.00 | 0.00 | 0.00 | 91 | 1017.0 |
| 20260906024245 | 76 | 266 | 0.0 | 1.7 | 0.00 | 0.00 | 0.00 | 91 | 1017.1 |
| 20260906023741 | 76 | 268 | 0.0 | 0.0 | 0.00 | 0.00 | 0.00 | 91 | 1017.0 |
| 20260906023237 | 76 | 256 | 0.0 | 0.0 | 0.00 | 0.00 | 0.00 | 91 | 1016.9 |
| 20260906022732 | 76 | 275 | 0.9 | 2.6 | 0.00 | 0.00 | 0.00 | 91 | 1016.9 |
| 20260906022227 | 77 | 282 | 0.0 | 2.6 | 0.00 | 0.00 | 0.00 | 91 | 1016.7 |
| 20260906021723 | 77 | 263 | 0.0 | 3.5 | 0.00 | 0.00 | 0.00 | 90 | 1016.9 |
| 20260906021222 | 77 | 261 | 0.0 | 0.9 | 0.00 | 0.00 | 0.00 | 90 | 1016.7 |
| 20260906020717 | 77 | 269 | 0.0 | 0.9 | 0.00 | 0.00 | 0.00 | 90 | 1016.8 |
| 20260906020211 | 77 | 263 | 0.0 | 7.0 | 0.00 | 0.00 | 0.00 | 90 | 1016.7 |
| 20260906015706 | 77 | 245 | 2.6 | 5.2 | 0.00 | 0.00 | 0.00 | 90 | 1016.8 |
| 20260906015205 | 78 | 274 | 0.9 | 2.6 | 0.00 | 0.00 | 0.00 | 89 | 1016.6 |
| 20260906014705 | 78 | 271 | 0.0 | 6.1 | 0.00 | 0.00 | 0.00 | 89 | 1016.7 |
| 20260906014201 | 78 | 305 | 1.7 | 3.5 | 0.00 | 0.00 | 0.00 | 89 | 1016.7 |
| 20260906013657 | 78 | 297 | 0.9 | 3.5 | 0.00 | 0.00 | 0.00 | 89 | 1016.5 |
| 20260906013152 | 79 | 276 | 0.9 | 2.6 | 0.00 | 0.00 | 0.00 | 88 | 1016.5 |
| 20260906012651 | 79 | 269 | 0.0 | 1.7 | 0.00 | 0.00 | 0.00 | 88 | 1016.3 |
| 20260906012146 | 79 | 272 | 2.6 | 5.2 | 0.00 | 0.00 | 0.00 | 87 | 1016.2 |
| 20260906011642 | 80 | 274 | 3.5 | 6.1 | 0.00 | 0.00 | 0.00 | 87 | 1016.3 |
| 20260906011142 | 80 | 280 | 1.7 | 6.1 | 0.00 | 0.00 | 0.00 | 86 | 1016.5 |
| 20260906010637 | 80 | 316 | 1.7 | 5.2 | 0.00 | 0.00 | 0.00 | 86 | 1016.3 |
| 20260906010134 | 81 | 264 | 0.0 | 1.7 | 0.00 | 0.00 | 0.00 | 86 | 1016.1 |
| 20260906005633 | 81 | 262 | 0.9 | 7.0 | 0.00 | 0.00 | 0.00 | 85 | 1016.2 |
| 20260906005133 | 81 | 272 | 1.7 | 6.1 | 0.00 | 0.00 | 0.00 | 85 | 1016.2 |
| 20260906004632 | 82 | 274 | 2.6 | 3.5 | 0.00 | 0.00 | 0.00 | 84 | 1016.0 |
| 20260906004127 | 82 | 265 | 1.7 | 8.7 | 0.00 | 0.00 | 0.00 | 84 | 1015.8 |
| 20260906003622 | 82 | 256 | 4.3 | 7.0 | 0.00 | 0.00 | 0.00 | 83 | 1015.6 |
| 20260906003118 | 83 | 277 | 2.6 | 5.2 | 0.00 | 0.00 | 0.00 | 82 | 1015.8 |
| 20260906002613 | 83 | 278 | 1.7 | 6.1 | 0.00 | 0.00 | 0.00 | 82 | 1015.8 |
| 20260906002107 | 83 | 301 | 5.2 | 7.0 | 0.00 | 0.00 | 0.00 | 81 | 1015.7 |
| 20260906001602 | 84 | 311 | 1.7 | 3.5 | 0.00 | 0.00 | 0.00 | 81 | 1015.7 |
| 20260906001057 | 84 | 306 | 0.9 | 2.6 | 0.00 | 0.00 | 0.00 | 80 | 1015.7 |
| 20260906000553 | 85 | 261 | 2.6 | 6.1 | 0.00 | 0.00 | 0.00 | 80 | 1015.7 |
| 20260906000048 | 85 | 265 | 1.7 | 5.2 | 0.00 | 0.00 | 0.00 | 79 | 1015.7 |
| 20260905235547 | 85 | 285 | 2.6 | 3.5 | 0.00 | 0.00 | 0.00 | 79 | 1015.6 |
| 20260905235042 | 86 | 286 | 4.3 | 6.1 | 0.00 | 0.00 | 0.00 | 78 | 1015.6 |
| 20260905234538 | 86 | 311 | 1.7 | 5.2 | 0.00 | 0.00 | 0.00 | 78 | 1015.9 |
| 20260905234033 | 87 | 272 | 1.7 | 5.2 | 0.00 | 0.00 | 0.00 | 77 | 1015.5 |
| 20260905233532 | 87 | 250 | 1.7 | 6.1 | 0.00 | 0.00 | 0.00 | 77 | 1015.7 |
| 20260905233027 | 88 | 277 | 0.0 | 7.0 | 0.00 | 0.00 | 0.00 | 76 | 1015.4 |
| 20260905232522 | 88 | 267 | 0.9 | 5.2 | 0.00 | 0.00 | 0.00 | 76 | 1015.3 |
| 20260905232018 | 89 | 294 | 1.7 | 7.8 | 0.00 | 0.00 | 0.00 | 76 | 1015.4 |
| 20260905231513 | 89 | 297 | 2.6 | 6.1 | 0.00 | 0.00 | 0.00 | 76 | 1015.2 |
| 20260905231010 | 89 | 314 | 2.6 | 7.8 | 0.00 | 0.00 | 0.00 | 75 | 1015.0 |
| 20260905230508 | 90 | 241 | 3.5 | 9.6 | 0.00 | 0.00 | 0.00 | 74 | 1015.1 |
| 20260905230007 | 91 | 303 | 1.7 | 5.2 | 0.00 | 0.00 | 0.00 | 73 | 1015.0 |
| 20260905225502 | 91 | 263 | 7.0 | 9.6 | 0.00 | 0.00 | 0.00 | 72 | 1015.1 |
| 20260905224957 | 91 | 261 | 0.0 | 3.5 | 0.00 | 0.00 | 0.00 | 71 | 1015.1 |
| 20260905224452 | 92 | 275 | 0.9 | 5.2 | 0.00 | 0.00 | 0.00 | 70 | 1015.1 |
| 20260905223951 | 93 | 233 | 0.9 | 1.7 | 0.00 | 0.00 | 0.00 | 69 | 1015.0 |
| 20260905223449 | 92 | 261 | 0.9 | 2.6 | 0.00 | 0.00 | 0.00 | 68 | 1015.1 |
| 20260905222944 | 92 | 266 | 0.0 | 1.7 | 0.00 | 0.00 | 0.00 | 70 | 1015.1 |
| 20260905222444 | 93 | 250 | 1.7 | 2.6 | 0.00 | 0.00 | 0.00 | 68 | 1015.1 |
| 20260905221939 | 93 | 268 | 2.6 | 2.6 | 0.00 | 0.00 | 0.00 | 68 | 1015.3 |
| 20260905221436 | 93 | 266 | 2.6 | 6.1 | 0.00 | 0.00 | 0.00 | 68 | 1015.1 |
| 20260905220932 | 92 | 248 | 0.9 | 2.6 | 0.00 | 0.00 | 0.00 | 68 | 1015.1 |
| 20260905220428 | 93 | 267 | 3.5 | 3.5 | 0.00 | 0.00 | 0.00 | 67 | 1015.1 |
| 20260905215926 | 93 | 252 | 0.0 | 2.6 | 0.00 | 0.00 | 0.00 | 67 | 1014.9 |
| 20260905215417 | 93 | 269 | 0.9 | 5.2 | 0.00 | 0.00 | 0.00 | 67 | 1015.0 |
| 20260905214913 | 95 | 264 | 0.0 | 1.7 | 0.00 | 0.00 | 0.00 | 65 | 1015.2 |
| 20260905214408 | 94 | 286 | 0.0 | 3.5 | 0.00 | 0.00 | 0.00 | 65 | 1015.0 |
| 20260905213907 | 95 | 297 | 1.7 | 5.2 | 0.00 | 0.00 | 0.00 | 64 | 1015.0 |
| 20260905213404 | 93 | 268 | 0.9 | 2.6 | 0.00 | 0.00 | 0.00 | 66 | 1014.9 |
| 20260905212859 | 94 | 243 | 1.7 | 3.5 | 0.00 | 0.00 | 0.00 | 65 | 1015.0 |
| 20260905212354 | 96 | 266 | 0.0 | 1.7 | 0.00 | 0.00 | 0.00 | 64 | 1014.6 |
| 20260905211853 | 95 | 248 | 0.0 | 1.7 | 0.00 | 0.00 | 0.00 | 64 | 1014.8 |
| 20260905211349 | 95 | 259 | 0.0 | 5.2 | 0.00 | 0.00 | 0.00 | 63 | 1014.9 |
| 20260905210840 | 93 | 261 | 0.0 | 2.6 | 0.00 | 0.00 | 0.00 | 66 | 1014.9 |
| 20260905210340 | 96 | 237 | 0.0 | 2.6 | 0.00 | 0.00 | 0.00 | 64 | 1015.0 |
| 20260905205839 | 96 | 259 | 0.0 | 3.5 | 0.00 | 0.00 | 0.00 | 64 | 1015.0 |
| 20260905205333 | 94 | 258 | 0.0 | 0.9 | 0.00 | 0.00 | 0.00 | 67 | 1015.0 |
| 20260905204833 | 94 | 250 | 0.0 | 1.7 | 0.00 | 0.00 | 0.00 | 68 | 1015.1 |
| 20260905204329 | 94 | 294 | 1.7 | 5.2 | 0.00 | 0.00 | 0.00 | 67 | 1015.1 |
| 20260905203827 | 93 | 263 | 0.0 | 6.1 | 0.00 | 0.00 | 0.00 | 69 | 1015.0 |
| 20260905203324 | 93 | 266 | 0.9 | 3.5 | 0.00 | 0.00 | 0.00 | 69 | 1015.2 |
| 20260905202819 | 92 | 254 | 3.5 | 5.2 | 0.00 | 0.00 | 0.00 | 69 | 1015.2 |
| 20260905202314 | 93 | 271 | 0.9 | 5.2 | 0.00 | 0.00 | 0.00 | 69 | 1015.3 |
| 20260905201809 | 94 | 262 | 0.0 | 1.7 | 0.00 | 0.00 | 0.00 | 67 | 1015.1 |
| 20260905201304 | 94 | 258 | 0.0 | 1.7 | 0.00 | 0.00 | 0.00 | 69 | 1015.3 |
| 20260905200759 | 93 | 244 | 3.5 | 6.1 | 0.00 | 0.00 | 0.00 | 69 | 1015.4 |
| 20260905200255 | 93 | 250 | 0.0 | 3.5 | 0.00 | 0.00 | 0.00 | 70 | 1015.3 |
| 20260905195753 | 94 | 267 | 0.9 | 2.6 | 0.00 | 0.00 | 0.00 | 66 | 1015.4 |
| 20260905195248 | 94 | 252 | 0.0 | 1.7 | 0.00 | 0.00 | 0.00 | 68 | 1015.3 |
| 20260905194744 | 94 | 249 | 0.0 | 1.7 | 0.00 | 0.00 | 0.00 | 67 | 1015.4 |
| 20260905194242 | 95 | 280 | 2.6 | 3.5 | 0.00 | 0.00 | 0.00 | 67 | 1015.5 |
| 20260905193737 | 95 | 259 | 0.0 | 0.9 | 0.00 | 0.00 | 0.00 | 66 | 1015.3 |
| 20260905193232 | 95 | 301 | 0.9 | 1.7 | 0.00 | 0.00 | 0.00 | 65 | 1015.3 |
| 20260905192727 | 95 | 261 | 0.0 | 3.5 | 0.00 | 0.00 | 0.00 | 68 | 1015.5 |
| 20260905192224 | 94 | 246 | 0.0 | 0.9 | 0.00 | 0.00 | 0.00 | 68 | 1015.5 |
| 20260905191723 | 94 | 250 | 0.0 | 0.9 | 0.00 | 0.00 | 0.00 | 68 | 1015.3 |
| 20260905191221 | 95 | 244 | 3.5 | 5.2 | 0.00 | 0.00 | 0.00 | 67 | 1015.6 |
| 20260905190720 | 94 | 245 | 2.6 | 6.1 | 0.00 | 0.00 | 0.00 | 67 | 1015.5 |
| 20260905190219 | 93 | 265 | 0.0 | 1.7 | 0.00 | 0.00 | 0.00 | 68 | 1015.5 |
| 20260905185718 | 94 | 305 | 1.7 | 2.6 | 0.00 | 0.00 | 0.00 | 67 | 1015.6 |
| 20260905185213 | 94 | 238 | 1.7 | 5.2 | 0.00 | 0.00 | 0.00 | 68 | 1015.6 |
| 20260905184713 | 95 | 237 | 1.7 | 5.2 | 0.00 | 0.00 | 0.00 | 68 | 1015.5 |
| 20260905184212 | 94 | 285 | 2.6 | 3.5 | 0.00 | 0.00 | 0.00 | 65 | 1015.7 |
| 20260905183706 | 94 | 183 | 2.6 | 3.5 | 0.00 | 0.00 | 0.00 | 67 | 1016.0 |
| 20260905183202 | 94 | 243 | 0.9 | 5.2 | 0.00 | 0.00 | 0.00 | 67 | 1015.8 |
| 20260905182700 | 94 | 286 | 0.9 | 3.5 | 0.00 | 0.00 | 0.00 | 67 | 1015.8 |
| 20260905182154 | 94 | 259 | 0.0 | 3.5 | 0.00 | 0.00 | 0.00 | 67 | 1015.8 |
| 20260905181650 | 95 | 218 | 0.0 | 0.9 | 0.00 | 0.00 | 0.00 | 68 | 1015.9 |
| 20260905181149 | 94 | 280 | 0.9 | 1.7 | 0.00 | 0.00 | 0.00 | 69 | 1015.7 |
| 20260905180644 | 94 | 274 | 0.0 | 2.6 | 0.00 | 0.00 | 0.00 | 69 | 1015.8 |
| 20260905180139 | 94 | 245 | 0.0 | 1.7 | 0.00 | 0.00 | 0.00 | 69 | 1015.7 |
| 20260905175637 | 93 | 263 | 0.0 | 0.9 | 0.00 | 0.00 | 0.00 | 69 | 1016.1 |
| 20260905175133 | 93 | 222 | 0.0 | 3.5 | 0.00 | 0.00 | 0.00 | 70 | 1015.9 |
| 20260905174629 | 93 | 264 | 0.0 | 0.9 | 0.00 | 0.00 | 0.00 | 70 | 1016.0 |
| 20260905174124 | 93 | 301 | 0.0 | 3.5 | 0.00 | 0.00 | 0.00 | 69 | 1016.0 |
| 20260905173620 | 93 | 280 | 0.0 | 3.5 | 0.00 | 0.00 | 0.00 | 71 | 1016.2 |
| 20260905173116 | 95 | 234 | 0.9 | 3.5 | 0.00 | 0.00 | 0.00 | 68 | 1016.1 |
| 20260905172614 | 93 | 293 | 0.9 | 2.6 | 0.00 | 0.00 | 0.00 | 68 | 1016.2 |
| 20260905172104 | 93 | 240 | 0.0 | 2.6 | 0.00 | 0.00 | 0.00 | 69 | 1016.1 |
| 20260905171600 | 93 | 268 | 0.9 | 5.2 | 0.00 | 0.00 | 0.00 | 71 | 1016.2 |
| 20260905171056 | 93 | 239 | 0.0 | 0.9 | 0.00 | 0.00 | 0.00 | 69 | 1016.3 |
| 20260905170553 | 92 | 276 | 0.9 | 3.5 | 0.00 | 0.00 | 0.00 | 72 | 1016.2 |
| 20260905170048 | 93 | 290 | 0.0 | 2.6 | 0.00 | 0.00 | 0.00 | 71 | 1016.3 |
| 20260905165542 | 92 | 243 | 0.9 | 1.7 | 0.00 | 0.00 | 0.00 | 70 | 1016.4 |
| 20260905165037 | 93 | 249 | 0.9 | 2.6 | 0.00 | 0.00 | 0.00 | 71 | 1016.3 |
| 20260905164532 | 92 | 249 | 0.0 | 3.5 | 0.00 | 0.00 | 0.00 | 71 | 1016.4 |
| 20260905164027 | 94 | 274 | 0.9 | 0.9 | 0.00 | 0.00 | 0.00 | 68 | 1016.4 |
| 20260905163523 | 93 | 272 | 0.0 | 3.5 | 0.00 | 0.00 | 0.00 | 71 | 1016.5 |
| 20260905163019 | 92 | 259 | 0.0 | 0.0 | 0.00 | 0.00 | 0.00 | 72 | 1016.2 |
| 20260905162515 | 91 | 303 | 0.9 | 1.7 | 0.00 | 0.00 | 0.00 | 71 | 1016.5 |
| 20260905162009 | 92 | 259 | 0.0 | 5.2 | 0.00 | 0.00 | 0.00 | 72 | 1016.6 |
| 20260905161508 | 91 | 242 | 0.9 | 1.7 | 0.00 | 0.00 | 0.00 | 74 | 1016.3 |
| 20260905161006 | 90 | 274 | 0.0 | 1.7 | 0.00 | 0.00 | 0.00 | 73 | 1016.4 |
| 20260905160459 | 90 | 250 | 0.0 | 1.7 | 0.00 | 0.00 | 0.00 | 73 | 1016.2 |
| 20260905155959 | 89 | 271 | 0.0 | 5.2 | 0.00 | 0.00 | 0.00 | 74 | 1016.5 |
| 20260905155454 | 90 | 250 | 2.6 | 5.2 | 0.00 | 0.00 | 0.00 | 73 | 1016.3 |
| 20260905154953 | 89 | 260 | 0.0 | 2.6 | 0.00 | 0.00 | 0.00 | 75 | 1016.4 |
| 20260905154448 | 89 | 258 | 0.9 | 2.6 | 0.00 | 0.00 | 0.00 | 74 | 1016.1 |
| 20260905153943 | 89 | 270 | 1.7 | 5.2 | 0.00 | 0.00 | 0.00 | 74 | 1016.4 |
| 20260905153440 | 89 | 261 | 1.7 | 2.6 | 0.00 | 0.00 | 0.00 | 73 | 1016.3 |
| 20260905152939 | 89 | 265 | 2.6 | 2.6 | 0.00 | 0.00 | 0.00 | 73 | 1016.3 |
| 20260905152439 | 89 | 270 | 0.9 | 0.9 | 0.00 | 0.00 | 0.00 | 73 | 1016.0 |
| 20260905151928 | 90 | 182 | 2.6 | 3.5 | 0.00 | 0.00 | 0.00 | 73 | 1016.3 |
| 20260905151419 | 89 | 281 | 0.0 | 1.7 | 0.00 | 0.00 | 0.00 | 73 | 1016.0 |
| 20260905150918 | 88 | 243 | 0.0 | 0.0 | 0.00 | 0.00 | 0.00 | 73 | 1016.0 |
| 20260905150413 | 88 | 270 | 0.0 | 3.5 | 0.00 | 0.00 | 0.00 | 74 | 1016.1 |
| 20260905145909 | 88 | 266 | 0.0 | 0.0 | 0.00 | 0.00 | 0.00 | 74 | 1015.9 |
| 20260905145409 | 88 | 255 | 0.0 | 0.0 | 0.00 | 0.00 | 0.00 | 73 | 1016.1 |
| 20260905144904 | 88 | 260 | 0.0 | 2.6 | 0.00 | 0.00 | 0.00 | 74 | 1016.0 |
| 20260905144359 | 87 | 245 | 0.0 | 0.9 | 0.00 | 0.00 | 0.00 | 76 | 1015.9 |
| 20260905143857 | 87 | 252 | 0.9 | 2.6 | 0.00 | 0.00 | 0.00 | 76 | 1015.8 |
| 20260905143351 | 87 | 262 | 0.9 | 3.5 | 0.00 | 0.00 | 0.00 | 76 | 1015.8 |
| 20260905142846 | 88 | 253 | 0.0 | 0.9 | 0.00 | 0.00 | 0.00 | 76 | 1015.8 |
| 20260905142344 | 89 | 264 | 0.0 | 0.9 | 0.00 | 0.00 | 0.00 | 74 | 1015.7 |
| 20260905141841 | 88 | 262 | 0.0 | 0.0 | 0.00 | 0.00 | 0.00 | 76 | 1015.4 |
| 20260905141336 | 87 | 250 | 0.0 | 0.0 | 0.00 | 0.00 | 0.00 | 75 | 1016.0 |
| 20260905140832 | 87 | 268 | 0.0 | 0.0 | 0.00 | 0.00 | 0.00 | 76 | 1015.7 |
| 20260905140332 | 87 | 259 | 0.0 | 1.7 | 0.00 | 0.00 | 0.00 | 77 | 1015.7 |
| 20260905135830 | 86 | 246 | 0.0 | 0.0 | 0.00 | 0.00 | 0.00 | 79 | 1015.8 |
| 20260905135326 | 86 | 234 | 0.0 | 0.0 | 0.00 | 0.00 | 0.00 | 77 | 1015.7 |
| 20260905134821 | 86 | 266 | 0.0 | 0.0 | 0.00 | 0.00 | 0.00 | 79 | 1015.5 |
| 20260905134314 | 85 | 253 | 0.0 | 0.0 | 0.00 | 0.00 | 0.00 | 79 | 1015.5 |
| 20260905133809 | 85 | 272 | 0.0 | 0.0 | 0.00 | 0.00 | 0.00 | 80 | 1015.5 |
| 20260905133305 | 85 | 263 | 0.0 | 0.0 | 0.00 | 0.00 | 0.00 | 81 | 1015.6 |
| 20260905132803 | 84 | 265 | 0.0 | 0.0 | 0.00 | 0.00 | 0.00 | 82 | 1015.5 |
| 20260905132259 | 83 | 278 | 0.0 | 0.9 | 0.00 | 0.00 | 0.00 | 84 | 1015.7 |
| 20260905131754 | 82 | 234 | 0.0 | 0.0 | 0.00 | 0.00 | 0.00 | 86 | 1015.5 |